EHI
9 6 3 2 4 8 10 10 11 13 12 9 7 5 3 2 1 0 0 0 0 1 1 1 0 0 0 0 0 0 1 2 2 2 1 0 1 1 2 3 3 1 0
11 9 6 3 4 7 10 10 12 14 13 11 7 5 3 3 2 1 1 1 1 1 1 0 0 0 0 0 0 0 0 1 1 1 0 0 1 1 1 2 2 1 1
13 12 10 6 4 7 10 12 13 15 15 12 9 5 4 4 4 3 3 2 1 1 0 0 1 1 1 1 1 0 0 0 0 0 0 0 0 0 0 0 1 1 2
12 13 13 10 7 7 11 13 15 15 15 13 10 8 7 6 5 5 5 5 3 1 0 0 2 2 1 1 1 0 0 0 0 0 0 1 1 1 1 1 1 2 2
11 13 14 12 10 9 11 14 17 16 15 13 12 11 9 7 6 5 7 7 5 3 1 0 1 1 1 1 0 0 0 0 0 0 1 2 2 2 2 2 2 2 2
10 13 15 15 12 10 11 16 20 20 17 14 13 12 10 8 7 7 7 6 5 4 3 2 1 1 1 1 0 0 0 0 0 1 2 2 3 3 3 3 3 2 2
9 12 15 15 12 11 13 19 24 24 20 18 16 13 10 9 9 8 7 6 5 5 5 4 3 1 0 0 0 0 0 0 0 1 2 2 2 3 3 3 3 3 2
6 10 13 13 13 13 15 21 25 25 23 22 21 18 13 10 10 10 10 8 7 7 5 4 3 1 0 0 0 0 0 0 0 1 2 3 3 3 3 4 3 2 1
5 7 9 11 13 15 18 22 25 27 25 25 26 22 17 14 13 12 11 9 9 7 4 3 3 1 1 1 1 0 0 0 0 1 3 3 3 3 3 3 3 2 1
5 7 8 9 11 15 20 23 24 25 25 24 24 22 20 19 17 14 12 11 10 7 4 3 3 3 3 3 2 1 0 1 1 2 3 4 3 2 2 2 2 2 2
6 8 8 8 10 13 19 22 22 21 21 21 20 19 21 22 20 17 15 13 12 9 6 5 4 4 5 5 5 2 1 2 3 4 4 4 3 3 2 1 1 1 1
4 6 8 9 11 14 17 19 18 18 20 20 18 19 23 25 24 20 18 17 15 11 9 7 6 5 5 6 6 4 3 4 5 6 5 4 5 5 5 3 1 1 2
4 6 9 12 16 17 17 17 15 17 22 24 23 23 25 27 26 22 19 19 18 15 13 12 11 8 6 6 8 7 5 5 7 7 7 7 8 9 8 6 5 5 6
5 8 12 18 22 23 21 20 17 19 26 31 30 28 28 27 25 21 20 20 20 17 15 14 14 13 10 9 11 10 8 8 9 8 9 11 12 12 10 10 10 9 9
7 11 16 22 26 28 27 26 24 25 31 36 37 35 32 30 26 23 23 23 21 17 15 15 15 15 14 12 12 12 12 11 11 10 10 11 11 11 9 9 10 10 11
11 13 18 24 28 29 30 31 31 32 36 38 38 37 36 34 31 28 26 25 22 19 17 15 14 15 14 10 8 10 14 15 14 13 12 11 10 9 9 8 6 6 8
18 18 20 25 29 29 29 32 35 36 37 36 36 36 35 35 34 32 28 25 23 21 19 16 15 16 13 7 3 6 13 17 16 15 13 11 10 10 10 8 5 4 5
22 22 21 24 28 29 29 32 35 36 36 36 36 35 35 35 35 33 30 25 21 21 21 20 19 19 15 8 2 4 12 17 17 17 15 13 12 11 11 10 8 8 8
19 19 19 20 24 29 33 35 36 36 36 37 37 36 37 37 36 32 29 24 20 19 20 22 22 22 19 10 2 4 13 18 19 19 17 14 11 9 9 11 13 13 12
16 15 17 18 23 31 38 40 39 38 37 37 37 38 39 39 35 31 26 22 20 18 18 21 24 25 22 12 4 5 14 20 21 21 19 14 9 7 6 11 15 16 14
15 16 20 22 25 32 38 41 41 39 36 37 38 39 39 38 34 29 24 20 18 18 18 20 23 24 21 13 5 5 12 19 23 22 20 14 7 4 4 7 12 13 12
14 18 24 26 27 31 35 38 40 38 36 37 40 41 40 37 34 29 23 19 18 19 20 20 20 19 16 11 5 4 7 13 20 23 19 13 6 1 1 3 5 6 6
13 17 22 24 25 28 30 32 36 39 37 37 39 41 40 37 34 29 22 20 20 20 19 18 17 16 14 10 7 4 3 6 13 18 14 8 4 1 1 1 1 3 5
12 15 19 19 21 24 25 26 33 38 38 35 35 37 35 32 31 28 23 20 20 20 18 17 17 17 16 12 10 8 6 5 8 11 10 6 4 3 3 2 3 6 9
13 15 17 18 20 23 24 26 31 36 37 34 32 30 27 25 25 25 22 19 18 16 16 15 15 16 15 10 9 9 8 8 8 9 9 7 6 6 5 7 8 9 11
14 15 16 18 21 24 25 27 31 34 35 33 31 28 23 21 22 22 20 17 15 14 12 12 13 14 11 6 4 5 6 7 7 8 9 8 8 7 7 9 11 12 11
Wind_Speed
10 10 9 8 8 7 7 7 6 5 4 3 3 3 3 2 2 2 3 3 2 3 2 2 3 1 3 2 3 3 3 2 1 1 2 3 3 3 2 1 2 2 2
11 11 11 10 9 9 8 8 7 7 6 4 2 1 1 1 2 2 2 2 2 2 2 2 2 2 2 3 2 2 1 1 0 1 1 2 3 2 3 2 2 2 2
13 12 12 11 10 10 10 8 8 8 6 5 4 3 3 2 3 3 2 2 2 2 2 2 1 2 1 2 2 2 1 1 1 1 2 1 2 2 3 2 2 2 2
13 13 13 13 12 11 10 10 9 8 7 7 5 5 4 3 2 2 3 3 2 2 2 2 2 1 1 2 1 2 0 1 0 1 1 2 2 1 2 2 2 2 1
13 14 14 13 12 12 11 10 10 9 8 7 6 6 5 3 2 3 3 2 3 2 2 2 2 1 1 1 1 1 0 0 1 0 0 1 1 1 1 1 0 1 1
12 13 13 13 12 12 11 11 11 9 9 8 7 7 5 4 3 3 3 3 3 3 3 3 2 2 1 1 1 1 2 0 1 1 1 1 0 0 0 1 1 0 1
11 12 13 14 13 13 13 12 12 11 10 10 8 8 7 6 5 5 4 3 3 3 3 3 2 2 2 2 1 2 1 1 1 0 0 1 1 1 1 1 0 0 0
10 11 13 13 14 14 14 13 12 11 11 10 9 8 8 6 5 5 3 3 2 2 3 3 3 2 2 2 2 2 2 2 1 1 1 1 0 1 1 1 1 1 1
9 10 11 12 13 14 14 13 12 11 11 11 9 8 8 6 5 5 5 4 3 3 4 4 4 3 3 2 3 2 2 2 2 2 2 2 0 1 1 1 2 2 1
8 9 10 11 12 13 13 12 12 12 11 11 10 8 8 7 6 5 5 4 4 3 4 4 4 3 3 3 3 3 2 2 2 1 1 2 1 1 1 2 2 2 3
7 7 8 10 12 13 13 12 12 12 10 10 9 8 8 8 7 6 6 5 5 5 5 4 4 4 3 3 3 3 2 3 2 2 2 2 2 2 2 2 2 2 2
5 7 8 9 10 12 12 12 12 11 11 10 9 9 8 7 7 7 6 6 6 5 5 4 4 4 4 4 4 4 3 3 3 3 2 3 2 2 3 2 3 2 2
4 6 7 8 9 10 11 12 12 11 11 10 10 9 9 8 7 7 7 7 6 6 6 5 5 5 4 4 4 4 4 3 3 3 3 3 3 3 3 4 3 3 3
3 5 6 7 8 9 9 10 11 11 10 10 10 9 9 8 8 7 7 7 7 7 7 6 6 5 5 5 5 5 4 4 3 3 4 4 3 4 4 4 4 3 3
4 5 5 6 7 8 9 9 9 9 9 10 9 9 8 8 7 7 7 7 7 7 6 6 6 6 5 5 5 5 5 4 4 4 4 3 2 2 3 3 2 3 4
3 4 5 6 7 8 8 9 9 9 9 9 9 8 8 8 8 8 7 7 6 6 6 6 6 6 4 3 2 4 4 4 5 4 4 4 4 4 4 3 3 4 5
3 4 5 5 6 7 7 8 9 9 10 10 9 9 9 9 8 8 7 7 7 6 6 6 6 6 5 4 4 4 5 5 5 4 4 5 2 4 4 5 6 6 6
2 3 4 4 6 6 6 7 8 9 10 9 9 9 9 9 8 8 7 7 6 6 6 6 6 6 5 7 6 6 7 6 5 5 5 5 4 4 4 5 5 5 5
2 2 3 3 4 6 6 7 8 9 9 9 9 9 9 9 9 8 8 7 6 6 6 6 6 6 6 7 7 7 6 5 6 6 5 6 5 3 4 6 6 6 5
1 1 2 2 3 5 6 7 8 8 9 9 9 9 9 8 8 8 7 6 6 6 6 6 6 7 6 7 8 8 6 5 5 5 5 4 5 4 5 7 6 6 6
1 1 1 2 3 4 6 6 7 7 7 7 7 8 8 8 7 6 6 6 6 6 6 6 6 6 6 7 9 8 6 5 6 5 5 3 5 5 5 7 6 5 6
1 0 0 1 2 4 5 5 5 5 6 6 7 7 7 7 6 7 6 6 6 6 6 6 6 5 5 6 8 9 8 6 6 5 4 2 5 5 6 6 4 4 6
1 1 1 1 1 3 4 5 4 4 5 6 6 6 7 6 6 7 7 7 7 6 5 5 5 5 4 5 8 10 9 8 6 4 2 1 5 6 7 8 7 6 6
1 1 1 1 2 2 2 3 3 4 5 6 6 6 7 7 7 6 6 6 6 6 6 6 5 5 4 5 5 6 6 8 7 5 3 6 7 7 5 5 7 7 5
1 1 1 1 2 2 2 2 3 4 5 6 6 6 6 6 6 6 5 6 5 4 5 5 5 5 5 3 2 4 4 4 3 3 5 5 4 5 5 5 5 5 5
1 1 1 1 1 2 2 3 3 4 4 5 5 4 5 5 5 5 5 2 3 4 4 3 4 3 2 3 4 4 3 3 4 5 5 5 5 5 5 5 4 5 5
Wind_Direction
185 178 183 183 177 176 175 176 177 167 176 169 172 158 142 134 128 116 105 108 100 101 99 95 108 113 101 97 116 124 124 106 105 128 115 118 116 102 97 94 90 96 89
187 183 185 186 185 181 181 180 182 176 181 169 172 160 136 140 111 97 109 117 113 120 130 103 122 110 111 119 121 141 128 116 98 310 233 143 130 113 84 91 103 89 94
193 188 189 190 188 185 185 185 184 181 185 179 178 168 164 172 147 147 144 133 127 117 83 111 98 111 146 123 140 160 181 148 138 337 327 335 65 99 106 78 74 65 53
198 193 191 192 191 189 183 184 182 184 183 186 189 187 186 178 151 154 133 142 141 140 135 124 117 130 89 107 176 127 198 255 194 129 19 3 9 326 126 129 97 96 84
201 196 193 191 192 188 184 181 180 184 185 190 189 198 200 186 167 156 137 158 146 159 154 140 135 142 140 101 62 89 338 269 301 13 168 127 131 253 239 109 76 101 94
201 196 192 188 191 188 187 182 179 184 186 190 191 199 196 192 184 175 165 174 161 164 160 156 149 161 136 137 150 152 144 33 1 336 336 305 310 292 249 173 201 154 83
193 191 190 191 191 190 187 184 181 184 187 189 192 196 195 192 195 198 182 190 174 168 160 164 167 165 154 160 162 158 126 136 129 243 306 347 350 321 303 247 221 45 106
191 191 190 192 192 190 189 186 183 186 186 189 192 195 197 199 195 198 202 187 193 166 152 165 170 174 176 176 171 177 168 155 182 204 293 279 319 312 298 282 272 240 209
189 191 189 189 189 189 188 187 183 186 187 189 189 193 198 204 199 190 201 193 187 174 164 173 178 178 178 183 189 183 182 176 209 202 200 238 212 246 249 254 263 276 268
187 186 187 187 188 186 185 185 184 186 186 187 191 189 193 195 195 197 194 190 185 183 175 181 184 187 191 195 206 198 177 189 201 234 267 264 253 264 247 240 250 275 283
185 181 182 183 185 184 181 185 184 184 185 189 189 191 190 188 188 193 194 189 189 185 190 192 193 192 199 203 208 223 192 203 206 215 212 235 266 263 255 248 246 254 269
189 180 177 180 183 183 181 183 184 185 186 186 188 189 185 185 189 189 188 185 187 191 190 194 199 203 204 208 213 218 210 213 218 222 226 236 227 234 262 263 257 254 257
188 179 174 180 184 185 186 183 184 185 185 183 187 186 184 183 187 185 183 184 187 190 192 196 206 212 213 212 214 217 220 223 224 225 231 237 242 244 250 255 258 254 241
182 183 177 181 186 187 187 187 186 184 182 182 185 185 187 184 184 184 185 187 190 194 198 199 206 211 215 213 211 209 213 220 223 226 234 238 241 247 252 244 249 261 259
178 185 185 183 187 187 186 186 186 184 182 182 186 185 183 181 183 184 188 191 195 198 197 202 205 210 213 213 209 208 207 215 224 227 233 232 246 313 290 285 266 253 256
191 192 194 188 188 188 186 184 185 183 181 185 186 181 180 181 183 184 186 190 196 200 199 203 206 210 214 157 186 234 219 216 221 230 238 227 210 211 224 264 286 288 266
209 198 206 201 194 191 187 187 185 182 183 185 183 179 181 183 184 185 184 191 196 199 204 208 209 211 200 166 187 223 234 228 227 229 238 250 227 221 231 218 221 235 247
247 220 214 203 196 188 185 185 181 182 185 185 183 183 185 185 185 187 190 195 196 200 206 209 211 212 198 177 194 215 223 230 232 234 237 245 248 246 257 249 239 240 233
260 241 223 202 192 186 180 178 179 183 185 187 186 185 186 187 188 190 193 195 198 203 209 207 209 211 200 181 191 213 221 222 229 235 237 242 243 236 257 252 251 252 250
282 250 222 196 179 180 179 179 181 184 190 189 188 186 187 189 192 193 195 195 199 205 212 209 211 213 209 181 187 212 227 221 224 222 225 227 240 231 234 244 248 253 259
316 290 215 194 175 176 177 184 182 186 187 185 184 185 187 191 190 190 196 198 203 204 212 211 213 215 209 185 187 206 234 229 229 228 224 203 184 216 230 251 256 261 270
303 286 172 183 173 177 180 184 185 181 179 182 184 186 190 195 185 185 196 202 205 204 207 209 215 211 200 197 190 197 224 258 246 247 246 197 170 206 227 237 251 262 264
305 260 157 145 164 177 185 186 182 178 180 185 187 187 190 192 191 191 193 199 204 213 212 211 214 213 202 187 186 196 215 230 244 255 289 227 196 216 224 224 230 236 242
264 241 174 154 159 176 190 198 184 183 183 187 190 192 194 196 194 202 204 207 207 213 214 216 218 215 208 205 196 200 205 213 229 240 219 208 211 229 243 222 220 233 244
259 236 211 188 173 173 185 191 179 182 185 189 195 201 203 203 198 207 215 217 213 217 224 229 229 225 225 203 198 223 218 223 231 244 240 237 225 227 232 234 235 239 238
260 232 222 216 188 177 181 185 179 184 190 194 199 207 207 200 204 202 203 189 209 170 199 232 247 237 209 170 185 216 232 230 215 227 237 239 242 243 243 243 240 237 240